| time (UTC) | temp F | wind direction | speed MPH | gust MPH | rain 1hr in | rain 24hr in | rain mn in | humidity % | barometer mb |
| 20260502213004 | 49 | 294 | 2.0 | 8.0 | 0.00 | 0.00 | 0.00 | 59 | 1017.4 |
| 20260502212504 | 49 | 303 | 3.0 | 10.0 | 0.00 | 0.00 | 0.00 | 59 | 1017.4 |
| 20260502212004 | 50 | 299 | 4.0 | 13.0 | 0.00 | 0.00 | 0.00 | 58 | 1017.4 |
| 20260502210504 | 50 | 294 | 3.0 | 8.0 | 0.00 | 0.00 | 0.00 | 58 | 1017.3 |
| 20260502210005 | 50 | 301 | 3.0 | 8.0 | 0.00 | 0.00 | 0.00 | 58 | 1017.5 |
| 20260502205004 | 50 | 287 | 4.0 | 9.0 | 0.00 | 0.00 | 0.00 | 57 | 1017.6 |
| 20260502204504 | 50 | 283 | 3.0 | 9.0 | 0.00 | 0.00 | 0.00 | 56 | 1017.4 |
| 20260502203504 | 50 | 297 | 4.0 | 11.0 | 0.00 | 0.00 | 0.00 | 56 | 1017.7 |
| 20260502203004 | 50 | 295 | 4.0 | 11.0 | 0.00 | 0.00 | 0.00 | 55 | 1017.7 |
| 20260502202004 | 50 | 287 | 2.0 | 7.0 | 0.00 | 0.00 | 0.00 | 55 | 1017.8 |
| 20260502201504 | 50 | 311 | 2.0 | 10.0 | 0.00 | 0.00 | 0.00 | 54 | 1017.8 |
| 20260502201003 | 50 | 314 | 3.0 | 10.0 | 0.00 | 0.00 | 0.00 | 54 | 1017.8 |
| 20260502200504 | 50 | 312 | 3.0 | 10.0 | 0.00 | 0.00 | 0.00 | 53 | 1018.1 |
| 20260502200004 | 50 | 309 | 4.0 | 9.0 | 0.00 | 0.00 | 0.00 | 52 | 1017.8 |
| 20260502195503 | 50 | 309 | 3.0 | 10.0 | 0.00 | 0.00 | 0.00 | 52 | 1018.0 |
| 20260502195004 | 50 | 315 | 4.0 | 10.0 | 0.00 | 0.00 | 0.00 | 51 | 1018.0 |
| 20260502194504 | 51 | 327 | 4.0 | 9.0 | 0.00 | 0.00 | 0.00 | 51 | 1017.9 |
| 20260502193504 | 51 | 319 | 4.0 | 9.0 | 0.00 | 0.00 | 0.00 | 50 | 1018.0 |
| 20260502193004 | 51 | 314 | 4.0 | 9.0 | 0.00 | 0.00 | 0.00 | 50 | 1018.1 |
| 20260502192504 | 51 | 314 | 4.0 | 9.0 | 0.00 | 0.00 | 0.00 | 50 | 1018.1 |
| 20260502192003 | 51 | 311 | 4.0 | 9.0 | 0.00 | 0.00 | 0.00 | 49 | 1018.0 |
| 20260502191003 | 51 | 325 | 3.0 | 8.0 | 0.00 | 0.00 | 0.00 | 48 | 1018.0 |
| 20260502190503 | 51 | 318 | 4.0 | 8.0 | 0.00 | 0.00 | 0.00 | 48 | 1017.9 |
| 20260502185503 | 51 | 324 | 4.0 | 8.0 | 0.00 | 0.00 | 0.00 | 47 | 1017.9 |
| 20260502185004 | 51 | 315 | 3.0 | 8.0 | 0.00 | 0.00 | 0.00 | 46 | 1017.8 |
| 20260502184504 | 51 | 314 | 2.0 | 7.0 | 0.00 | 0.00 | 0.00 | 46 | 1017.9 |
| 20260502183504 | 52 | 314 | 3.0 | 7.0 | 0.00 | 0.00 | 0.00 | 45 | 1017.9 |
| 20260502183004 | 52 | 319 | 4.0 | 10.0 | 0.00 | 0.00 | 0.00 | 43 | 1018.0 |
| 20260502182503 | 52 | 323 | 4.0 | 10.0 | 0.00 | 0.00 | 0.00 | 43 | 1017.9 |
| 20260502182004 | 52 | 334 | 4.0 | 10.0 | 0.00 | 0.00 | 0.00 | 43 | 1017.8 |
| 20260502181504 | 52 | 335 | 4.0 | 9.0 | 0.00 | 0.00 | 0.00 | 43 | 1017.9 |
| 20260502181003 | 52 | 337 | 4.0 | 9.0 | 0.00 | 0.00 | 0.00 | 43 | 1017.6 |
| 20260502170503 | 53 | 336 | 7.0 | 19.0 | 0.00 | 0.00 | 0.00 | 38 | 1017.7 |
| 20260502164004 | 54 | 356 | 9.0 | 19.0 | 0.00 | 0.00 | 0.00 | 36 | 1017.8 |
| 20260502163504 | 54 | 344 | 8.0 | 19.0 | 0.00 | 0.00 | 0.00 | 36 | 1017.7 |
| 20260502163005 | 54 | 349 | 8.0 | 16.0 | 0.00 | 0.00 | 0.00 | 36 | 1017.7 |
| 20260502162504 | 54 | 348 | 9.0 | 17.0 | 0.00 | 0.00 | 0.00 | 36 | 1017.7 |
| 20260502162004 | 54 | 352 | 9.0 | 21.0 | 0.00 | 0.00 | 0.00 | 35 | 1017.8 |
| 20260502161504 | 55 | 348 | 8.0 | 21.0 | 0.00 | 0.00 | 0.00 | 35 | 1017.9 |
| 20260502161003 | 55 | 340 | 8.0 | 19.0 | 0.00 | 0.00 | 0.00 | 35 | 1017.7 |
| 20260502160503 | 55 | 351 | 8.0 | 16.0 | 0.00 | 0.00 | 0.00 | 36 | 1017.7 |
| 20260502152003 | 56 | 356 | 10.0 | 21.0 | 0.00 | 0.00 | 0.00 | 36 | 1018.0 |
| 20260502151504 | 56 | 356 | 11.0 | 26.0 | 0.00 | 0.00 | 0.00 | 36 | 1018.0 |
| 20260502150504 | 55 | 345 | 10.0 | 22.0 | 0.00 | 0.00 | 0.00 | 37 | 1018.1 |
| 20260502130504 | 55 | 330 | 10.0 | 25.0 | 0.00 | 0.00 | 0.00 | 37 | 1018.7 |
| 20260502123504 | 54 | 337 | 11.0 | 22.0 | 0.00 | 0.00 | 0.00 | 42 | 1018.9 |
| 20260502123005 | 54 | 348 | 11.0 | 26.0 | 0.00 | 0.00 | 0.00 | 42 | 1018.7 |
| 20260502122004 | 54 | 337 | 12.0 | 23.0 | 0.00 | 0.00 | 0.00 | 42 | 1018.7 |
| 20260502121505 | 54 | 346 | 9.0 | 23.0 | 0.00 | 0.00 | 0.00 | 42 | 1018.7 |
| 20260502120504 | 54 | 346 | 12.0 | 22.0 | 0.00 | 0.00 | 0.00 | 43 | 1019.0 |
| 20260502115504 | 54 | 5 | 11.0 | 22.0 | 0.00 | 0.00 | 0.00 | 45 | 1019.0 |
| 20260502115003 | 54 | 1 | 11.0 | 22.0 | 0.00 | 0.00 | 0.00 | 46 | 1019.1 |
| 20260502114004 | 54 | 346 | 12.0 | 24.0 | 0.00 | 0.00 | 0.00 | 44 | 1019.1 |
| 20260502113504 | 55 | 337 | 11.0 | 24.0 | 0.00 | 0.00 | 0.00 | 43 | 1018.9 |
| 20260502113004 | 55 | 355 | 10.0 | 21.0 | 0.00 | 0.00 | 0.00 | 43 | 1019.0 |
| 20260502112504 | 55 | 9 | 8.0 | 20.0 | 0.00 | 0.00 | 0.00 | 45 | 1018.8 |
| 20260502112004 | 55 | 1 | 9.0 | 21.0 | 0.00 | 0.00 | 0.00 | 45 | 1018.8 |
| 20260502111505 | 55 | 21 | 13.0 | 33.0 | 0.00 | 0.00 | 0.00 | 42 | 1018.9 |
| 20260502111004 | 56 | 34 | 14.0 | 33.0 | 0.00 | 0.00 | 0.00 | 40 | 1018.8 |
| 20260502110503 | 56 | 13 | 12.0 | 25.0 | 0.00 | 0.00 | 0.00 | 43 | 1019.0 |
| 20260502105504 | 55 | 9 | 11.0 | 26.0 | 0.00 | 0.00 | 0.00 | 44 | 1018.8 |
| 20260502103004 | 54 | 357 | 11.0 | 20.0 | 0.00 | 0.00 | 0.00 | 52 | 1019.0 |
| 20260502102004 | 53 | 10 | 9.0 | 22.0 | 0.00 | 0.00 | 0.00 | 55 | 1019.1 |
| 20260502101004 | 53 | 24 | 9.0 | 21.0 | 0.00 | 0.00 | 0.00 | 53 | 1019.4 |
| 20260502100504 | 53 | 27 | 10.0 | 22.0 | 0.00 | 0.00 | 0.00 | 52 | 1019.1 |
| 20260502091504 | 54 | 350 | 12.0 | 24.0 | 0.00 | 0.00 | 0.00 | 54 | 1019.2 |
| 20260502091004 | 54 | 350 | 10.0 | 22.0 | 0.00 | 0.00 | 0.00 | 55 | 1019.2 |
| 20260502090504 | 53 | 345 | 9.0 | 22.0 | 0.00 | 0.00 | 0.00 | 57 | 1019.1 |
| 20260502070504 | 51 | 350 | 5.0 | 20.0 | 0.00 | 0.00 | 0.00 | 61 | 1019.1 |
| 20260502070004 | 51 | 354 | 6.0 | 20.0 | 0.00 | 0.00 | 0.00 | 61 | 1019.3 |
| 20260502065504 | 51 | 349 | 5.0 | 17.0 | 0.00 | 0.00 | 0.00 | 61 | 1019.3 |
| 20260502065004 | 51 | 340 | 5.0 | 13.0 | 0.00 | 0.00 | 0.00 | 60 | 1019.5 |
| 20260502064504 | 51 | 344 | 6.0 | 13.0 | 0.00 | 0.00 | 0.00 | 59 | 1019.2 |
| 20260502064003 | 51 | 344 | 6.0 | 13.0 | 0.00 | 0.00 | 0.00 | 59 | 1019.0 |
| 20260502063504 | 52 | 349 | 7.0 | 16.0 | 0.00 | 0.00 | 0.00 | 58 | 1018.8 |
| 20260502063004 | 52 | 16 | 10.0 | 23.0 | 0.00 | 0.00 | 0.00 | 58 | 1018.9 |
| 20260502062503 | 52 | 27 | 11.0 | 23.0 | 0.00 | 0.00 | 0.00 | 56 | 1019.0 |
| 20260502062004 | 52 | 12 | 10.0 | 23.0 | 0.00 | 0.00 | 0.00 | 54 | 1019.0 |
| 20260502060504 | 53 | 358 | 3.0 | 9.0 | 0.00 | 0.00 | 0.00 | 55 | 1019.0 |
| 20260502060004 | 53 | 358 | 4.0 | 13.0 | 0.00 | 0.00 | 0.00 | 54 | 1018.8 |
| 20260502055504 | 53 | 13 | 5.0 | 13.0 | 0.00 | 0.00 | 0.00 | 53 | 1018.7 |
| 20260502055004 | 53 | 29 | 6.0 | 13.0 | 0.00 | 0.00 | 0.00 | 54 | 1018.7 |
| 20260502054504 | 52 | 348 | 7.0 | 13.0 | 0.00 | 0.00 | 0.00 | 53 | 1018.8 |
| 20260502054003 | 52 | 343 | 6.0 | 13.0 | 0.00 | 0.00 | 0.00 | 54 | 1018.6 |
| 20260502053503 | 52 | 19 | 5.0 | 12.0 | 0.00 | 0.00 | 0.00 | 55 | 1018.8 |
| 20260502053005 | 52 | 26 | 5.0 | 12.0 | 0.00 | 0.00 | 0.00 | 57 | 1018.9 |
| 20260502052504 | 52 | 11 | 4.0 | 12.0 | 0.00 | 0.00 | 0.00 | 58 | 1018.9 |
| 20260502052004 | 52 | 358 | 3.0 | 9.0 | 0.00 | 0.00 | 0.00 | 61 | 1019.0 |
| 20260502051504 | 52 | 342 | 1.0 | 9.0 | 0.00 | 0.00 | 0.00 | 63 | 1018.8 |
| 20260502051003 | 52 | 314 | 0.0 | 2.0 | 0.00 | 0.00 | 0.00 | 63 | 1018.9 |
| 20260502050504 | 52 | 314 | 0.0 | 3.0 | 0.00 | 0.00 | 0.00 | 63 | 1018.8 |
| 20260502050005 | 52 | 314 | 0.0 | 3.0 | 0.00 | 0.00 | 0.00 | 63 | 1019.0 |
| 20260502045504 | 52 | 314 | 0.0 | 3.0 | 0.00 | 0.00 | 0.00 | 62 | 1018.9 |
| 20260502045004 | 52 | 151 | 1.0 | 5.0 | 0.00 | 0.00 | 0.00 | 62 | 1019.1 |
| 20260502044504 | 52 | 125 | 2.0 | 5.0 | 0.00 | 0.00 | 0.00 | 62 | 1018.9 |
| 20260502044004 | 52 | 68 | 2.0 | 5.0 | 0.00 | 0.00 | 0.00 | 62 | 1019.2 |
| 20260502043503 | 52 | 19 | 2.0 | 5.0 | 0.00 | 0.01 | 0.00 | 62 | 1018.9 |
| 20260502043004 | 52 | 10 | 2.0 | 8.0 | 0.00 | 0.01 | 0.00 | 62 | 1019.0 |
| 20260502042504 | 52 | 3 | 2.0 | 8.0 | 0.00 | 0.01 | 0.00 | 63 | 1019.0 |
| 20260502041004 | 52 | 114 | 0.0 | 2.0 | 0.00 | 0.01 | 0.00 | 64 | 1018.9 |
| 20260502040504 | 52 | 104 | 0.0 | 2.0 | 0.00 | 0.01 | 0.00 | 64 | 1018.9 |
| 20260502040004 | 52 | 141 | 0.0 | 2.0 | 0.00 | 0.01 | 0.00 | 63 | 1018.7 |
| 20260502035504 | 52 | 198 | 0.0 | 4.0 | 0.00 | 0.02 | 0.00 | 63 | 1018.7 |
| 20260502035003 | 52 | 140 | 1.0 | 4.0 | 0.00 | 0.02 | 0.00 | 63 | 1018.7 |
| 20260502034504 | 52 | 83 | 1.0 | 4.0 | 0.00 | 0.02 | 0.00 | 63 | 1018.3 |
| 20260502034003 | 52 | 61 | 1.0 | 6.0 | 0.00 | 0.02 | 0.00 | 63 | 1018.5 |
| 20260502033504 | 52 | 46 | 2.0 | 6.0 | 0.00 | 0.02 | 0.00 | 62 | 1018.5 |
| 20260502033004 | 52 | 44 | 3.0 | 11.0 | 0.00 | 0.02 | 0.00 | 62 | 1018.3 |
| 20260502032004 | 51 | 3 | 2.0 | 7.0 | 0.00 | 0.02 | 0.00 | 63 | 1018.4 |
| 20260502031504 | 51 | 355 | 2.0 | 4.0 | 0.00 | 0.02 | 0.00 | 63 | 1018.4 |
| 20260502031004 | 51 | 12 | 2.0 | 6.0 | 0.00 | 0.04 | 0.00 | 64 | 1018.4 |
| 20260502030004 | 51 | 339 | 1.0 | 4.0 | 0.00 | 0.06 | 0.00 | 65 | 1018.3 |
| 20260502025504 | 51 | 314 | 0.0 | 3.0 | 0.00 | 0.06 | 0.00 | 65 | 1018.2 |
| 20260502025003 | 51 | 322 | 0.0 | 3.0 | 0.00 | 0.06 | 0.00 | 65 | 1018.4 |
| 20260502024504 | 52 | 354 | 0.0 | 2.0 | 0.00 | 0.06 | 0.00 | 65 | 1018.4 |
| 20260502024004 | 52 | 9 | 0.0 | 3.0 | 0.00 | 0.06 | 0.00 | 65 | 1018.5 |
| 20260502023504 | 52 | 351 | 1.0 | 4.0 | 0.00 | 0.07 | 0.00 | 65 | 1018.4 |
| 20260502023004 | 52 | 322 | 2.0 | 7.0 | 0.00 | 0.07 | 0.00 | 65 | 1018.5 |
| 20260502022004 | 52 | 332 | 4.0 | 11.0 | 0.00 | 0.08 | 0.00 | 65 | 1018.3 |
| 20260502021003 | 52 | 320 | 2.0 | 7.0 | 0.00 | 0.12 | 0.00 | 67 | 1018.4 |
| 20260502020503 | 52 | 314 | 1.0 | 4.0 | 0.00 | 0.13 | 0.00 | 68 | 1018.5 |
| 20260502020004 | 52 | 314 | 0.0 | 4.0 | 0.00 | 0.14 | 0.00 | 68 | 1018.4 |
| 20260502015504 | 52 | 321 | 0.0 | 4.0 | 0.00 | 0.15 | 0.00 | 68 | 1018.2 |
| 20260502015004 | 52 | 327 | 1.0 | 4.0 | 0.00 | 0.15 | 0.00 | 68 | 1018.3 |
| 20260502014504 | 52 | 35 | 2.0 | 5.0 | 0.00 | 0.15 | 0.00 | 69 | 1018.4 |
| 20260502014003 | 51 | 34 | 3.0 | 8.0 | 0.00 | 0.15 | 0.00 | 69 | 1018.3 |
| 20260502013503 | 51 | 338 | 3.0 | 8.0 | 0.00 | 0.15 | 0.00 | 70 | 1018.4 |
| 20260502013005 | 51 | 331 | 2.0 | 6.0 | 0.00 | 0.15 | 0.00 | 71 | 1018.6 |
| 20260502012504 | 51 | 335 | 1.0 | 4.0 | 0.00 | 0.15 | 0.00 | 70 | 1018.5 |
| 20260502012003 | 51 | 358 | 1.0 | 4.0 | 0.00 | 0.15 | 0.00 | 70 | 1018.4 |
| 20260502011504 | 51 | 33 | 1.0 | 4.0 | 0.00 | 0.15 | 0.00 | 70 | 1018.6 |
| 20260502011004 | 51 | 53 | 1.0 | 4.0 | 0.00 | 0.15 | 0.00 | 70 | 1018.6 |
| 20260502010504 | 51 | 61 | 1.0 | 4.0 | 0.00 | 0.15 | 0.00 | 70 | 1018.5 |
| 20260502010004 | 51 | 61 | 3.0 | 8.0 | 0.00 | 0.15 | 0.00 | 70 | 1018.3 |
| 20260502005504 | 51 | 60 | 3.0 | 8.0 | 0.00 | 0.15 | 0.00 | 69 | 1018.5 |
| 20260502005003 | 51 | 61 | 3.0 | 7.0 | 0.00 | 0.15 | 0.00 | 69 | 1018.6 |
| 20260502004504 | 51 | 62 | 4.0 | 9.0 | 0.00 | 0.15 | 0.00 | 69 | 1018.5 |
| 20260502004003 | 51 | 66 | 5.0 | 10.0 | 0.00 | 0.15 | 0.00 | 68 | 1018.7 |
| 20260502003503 | 51 | 74 | 5.0 | 11.0 | 0.00 | 0.15 | 0.00 | 68 | 1018.5 |
| 20260502003004 | 52 | 84 | 4.0 | 11.0 | 0.00 | 0.15 | 0.00 | 68 | 1018.6 |
| 20260502002504 | 52 | 83 | 4.0 | 10.0 | 0.00 | 0.15 | 0.00 | 68 | 1018.6 |
| 20260502002004 | 52 | 58 | 4.0 | 12.0 | 0.00 | 0.15 | 0.00 | 68 | 1018.7 |
| 20260502001504 | 52 | 38 | 6.0 | 13.0 | 0.00 | 0.15 | 0.00 | 68 | 1018.9 |
| 20260502001003 | 52 | 41 | 5.0 | 13.0 | 0.00 | 0.15 | 0.00 | 69 | 1018.8 |
| 20260502000503 | 52 | 59 | 2.0 | 13.0 | 0.00 | 0.15 | 0.00 | 71 | 1019.0 |
| 20260502000004 | 52 | 58 | 2.0 | 5.0 | 0.00 | 0.15 | 0.00 | 72 | 1018.9 |
| 20260501235003 | 52 | 90 | 1.0 | 4.0 | 0.00 | 0.15 | 0.00 | 72 | 1018.8 |
| 20260501234504 | 52 | 101 | 0.0 | 3.0 | 0.00 | 0.15 | 0.00 | 72 | 1019.0 |
| 20260501234003 | 52 | 101 | 1.0 | 4.0 | 0.00 | 0.15 | 0.00 | 71 | 1019.0 |
| 20260501233503 | 52 | 85 | 1.0 | 5.0 | 0.00 | 0.15 | 0.00 | 70 | 1019.1 |
| 20260501233004 | 52 | 61 | 1.0 | 5.0 | 0.00 | 0.15 | 0.00 | 68 | 1019.1 |
| 20260501232503 | 52 | 23 | 0.0 | 3.0 | 0.00 | 0.17 | 0.00 | 68 | 1019.0 |
| 20260501232004 | 52 | 334 | 0.0 | 3.0 | 0.00 | 0.17 | 0.00 | 69 | 1019.2 |
| 20260501231504 | 52 | 322 | 0.0 | 3.0 | 0.00 | 0.17 | 0.00 | 70 | 1019.2 |
| 20260501231004 | 52 | 344 | 1.0 | 3.0 | 0.00 | 0.17 | 0.00 | 70 | 1019.3 |
| 20260501230503 | 52 | 248 | 0.0 | 3.0 | 0.00 | 0.17 | 0.00 | 70 | 1019.3 |
| 20260501230004 | 52 | 216 | 0.0 | 3.0 | 0.00 | 0.17 | 0.00 | 70 | 1019.2 |
| 20260501225503 | 52 | 143 | 0.0 | 3.0 | 0.00 | 0.18 | 0.00 | 69 | 1019.4 |
| 20260501225003 | 52 | 174 | 1.0 | 3.0 | 0.00 | 0.18 | 0.00 | 69 | 1019.5 |
| 20260501224505 | 52 | 189 | 1.0 | 3.0 | 0.00 | 0.18 | 0.00 | 69 | 1019.4 |
| 20260501223503 | 52 | 223 | 1.0 | 4.0 | 0.00 | 0.18 | 0.00 | 69 | 1019.6 |
| 20260501223004 | 52 | 225 | 1.0 | 4.0 | 0.00 | 0.19 | 0.00 | 69 | 1019.7 |
| 20260501222503 | 52 | 0 | 0.0 | 0.0 | 0.00 | 0.20 | 0.00 | 68 | 1019.9 |
| 20260501222004 | 52 | 0 | 0.0 | 0.0 | 0.00 | 0.20 | 0.00 | 68 | 1019.9 |
| 20260501221003 | 53 | 225 | 0.0 | 3.0 | 0.00 | 0.20 | 0.00 | 68 | 1019.9 |
| 20260501220503 | 53 | 225 | 0.0 | 3.0 | 0.00 | 0.20 | 0.00 | 68 | 1020.0 |
| 20260501220004 | 53 | 225 | 0.0 | 3.0 | 0.00 | 0.20 | 0.00 | 68 | 1019.9 |
| 20260501215505 | 53 | 225 | 1.0 | 4.0 | 0.00 | 0.20 | 0.00 | 67 | 1020.1 |
| 20260501215004 | 53 | 224 | 1.0 | 4.0 | 0.00 | 0.20 | 0.00 | 67 | 1020.0 |
| 20260501214504 | 53 | 204 | 0.0 | 3.0 | 0.00 | 0.20 | 0.00 | 66 | 1020.2 |
| 20260501214004 | 53 | 153 | 0.0 | 2.0 | 0.00 | 0.20 | 0.00 | 66 | 1020.2 |
| 20260501213503 | 53 | 0 | 0.0 | 0.0 | 0.00 | 0.20 | 0.00 | 65 | 1020.2 |